Regional Weather Roundup
Issued by NWS

Home | Current Version | Previous Version | Graphics & Text | Print | Product List | Glossary On
Versions: 1 2 3 4 5 6 7 8 9 10 11 12 13 14 15 16 17 18 19 20 21 22 23 24 25 26 27 28 29 30 31 32 33 34 35 36 37 38 39 40 41 42 43 44 45 46 47 48 49 50
000
ASUS43 KLOT 220410
RWRIL

ILLINOIS REGIONAL WEATHER ROUNDUP
NATIONAL WEATHER SERVICE CHICAGO/ROMEOVILLE IL
1100 PM CDT MON JUL 21 2014

NOTE: "FAIR" INDICATES FEW OR NO CLOUDS BELOW 12,000 FEET WITH NO
SIGNIFICANT WEATHER AND/OR OBSTRUCTIONS TO VISIBILITY.

* THESE STATIONS ARE NOT UNDER NWS QUALITY CONTROL. THEY ALSO MAY NOT
  REPORT WEATHER SUCH AS PRECIPITATION OR FOG.

ILZ001-002-007-009-015-016-024-220500-
NORTHWEST ILLINOIS

CITY           SKY/WX    TMP DP  RH WIND       PRES   REMARKS
MOLINE         CLEAR     76  69  79 SE6       30.01S
STERLING*      CLEAR     73  68  83 S5        30.04S
SAVANNA*       CLEAR     76  68  76 S9        30.00F
$$

ILZ003-004-008-010-011-017-018-220500-
NORTH CENTRAL ILLINOIS

CITY           SKY/WX    TMP DP  RH WIND       PRES   REMARKS
ROCKFORD       CLEAR     74  67  78 S12       30.05F
FREEPORT*      CLEAR     71  68  90 S7        30.05S
ROCHELLE*      CLEAR     70  67  90 S6        30.06S
DE KALB*       CLEAR     69  65  89 S9        30.07S
PERU*          CLEAR     74  67  81 S8        30.06F
$$

ILZ005-006-012>014-019>023-220500-
NORTHEAST ILLINOIS

CITY           SKY/WX    TMP DP  RH WIND       PRES   REMARKS
CHICAGO-OHARE  CLEAR     75  63  66 S9        30.05F
CHICAGO-MIDWAY CLEAR     79  66  64 S8        30.06F HX  81
AURORA         CLEAR     71  65  81 S7        30.06F
LANSING*       CLEAR     70  64  82 S5        30.08S
JOLIET*        CLEAR     72  64  76 S3        30.07S
WAUKEGAN       CLEAR     73  64  73 S8        30.04F
DUPAGE AIRPORT CLEAR     72  65  78 S7        30.05F
KANKAKEE*      CLEAR     68  65  92 SE5       30.08F
WHEELING       CLEAR     77  65  66 S7        30.07S
MORRIS*        CLEAR     71  68  89 S5        30.06S
ROMEOVILLE*    CLEAR     69  65  88 S5        30.07S
NORTHERLY ISL    N/A     77  63  61 S7          N/A
$$

LMZ740>746-220500-
SOUTHERN LAKE MICHIGAN

STATION/POSITION SKY/WX   TEMP    WIND        PRES    VSBY  WAVE
                          AIR SEA DIR/SP/G                  HT/PER
                          (F)     (DEG/KT/KT) (MB)    (MI)  (FT/S)
SOUTHERN BUOY              72 70  160/ 10/ 12 1017.8S         1
WAUKEGAN HARBOR            67     200/  6/  7 1019.0S
HARRISON CRIB              76     180/ 13/ 14   N/A
BURNHAM HARBOR             77     170/  4/  9   N/A
CALUMET HARBOR             77     180/  4/  5 1017.1S
BURNS HARBOR               74     200/  6/  8 1019.0S
MICHIGAN CITY              75     150/  7/ 10   N/A
$$

ILZ025>027-034>036-040-047-049-050-058-095>099-220500-
WEST-CENTRAL ILLINOIS

CITY           SKY/WX    TMP DP  RH WIND       PRES   REMARKS
QUINCY         CLEAR     76  67  73 SE7       30.03S
GALESBURG*     MOCLDY    74  70  88 S5        30.04R
MACOMB*        CLEAR     72  69  92 SE8       30.05S
JACKSONVILLE*  CLEAR     74  69  83 SE6       30.06R
PITTSFIELD*    CLEAR     73  67  83 SE3       30.05S
$$

ILZ028>032-037-038-041>044-048-051>054-059>061-220500-
CENTRAL ILLINOIS

CITY           SKY/WX    TMP DP  RH WIND       PRES   REMARKS
PONTIAC        CLEAR     70  68  94 SE6       30.07S
BLOOMINGTON    CLEAR     69  65  87 S8        30.09S
DECATUR        CLEAR     71  66  84 SE6       30.08F
PEORIA         CLEAR     76  67  73 SE7       30.05F
LACON*         CLEAR     73  67  82 SE7       30.05S
LINCOLN*       CLEAR     70  66  88 S5        30.04S
SPRINGFIELD    CLEAR     74  66  76 S7        30.06S
TAYLORVILLE    CLEAR     70  64  83 SE6       30.07S
$$

ILZ033-039-045-046-055>057-062-063-220500-
EAST-CENTRAL ILLINOIS

CITY           SKY/WX    TMP DP  RH WIND       PRES   REMARKS
CHAMPAIGN      CLEAR     69  65  86 SE5       30.09F
RANTOUL*       CLEAR     69  64  84 CALM      30.10S
MATTOON        CLEAR     68  66  93 S3        30.08F
PARIS*           N/A     65  64  97 CALM      30.10S FOG
$$

ILZ079-100>102-220500-
SOUTHWEST ILLINOIS

CITY           SKY/WX    TMP DP  RH WIND       PRES   REMARKS
ALTON          CLEAR     70  69  98 E5        30.06S
BELLEVILLE     CLEAR     71  67  87 NE1       30.06S
CAHOKIA*       CLEAR     74  67  78 S6        30.05F
SPARTA*        CLEAR     70  68  94 CALM      30.07F
$$

ILZ064>066-069>071-074>076-080>082-084>086-088>090-092>094-220500-
SOUTH-CENTRAL ILLINOIS

CITY           SKY/WX    TMP DP  RH WIND       PRES   REMARKS
CARBONDALE     CLEAR     68  65  90 CALM      30.07S
CAIRO*         CLEAR     70  66  87 CALM      30.07S FOG
MARION         CLEAR     70  66  88 CALM      30.08S
MT. VERNON     CLEAR     64  61  88 CALM      30.08F
CENTRALIA*     CLEAR     66  64  91 CALM      30.07F
SALEM*         CLEAR     70  67  91 CALM      30.08F
METROPOLIS*    CLEAR     68  64  88 CALM      30.07S
$$

ILZ067-068-072-073-078-083-087-091-220500-
SOUTHEAST ILLINOIS

CITY           SKY/WX    TMP DP  RH WIND       PRES   REMARKS
FLORA*         CLEAR     68  66  94 CALM      30.08F
FAIRFIELD*     CLEAR     68  66  94 CALM      30.08S
HARRISBURG*    CLEAR     69  68  98 CALM      30.09S
ROBINSON*      CLEAR     69  68  97 CALM      30.09F FOG
CARMI*         CLEAR     68  67  98 CALM      30.07S FOG
$$

ABBREVIATIONS USED IN REMARKS
   TC - TEMPERATURE IN CELSIUS
  WCI - WIND CHILL INDEX
   HX - HEAT INDEX
  VSB - VISIBILITY
$$




USA.gov is the U.S. government's official web portal to all federal, state and local government web resources and services.